Location: Armonlaakso
(60.3703°N, 22.2872°E)
Time: 11:11:32
(UTC+00:00)

Daily predictions for brighter satellites

Satellite Brightness Start Highest point End
(mag) Time Altitude Azimuth Time Altitude Azimuth Time Altitude Azimuth
Cosmos 44 3.4 19:34:12 10° WNW 19:38:57 84° NNE 19:43:58 10° ESE
Cosmos 1515 4.3 19:35:38 10° N 19:39:22 45° ENE 19:43:04 10° SE
Cosmos 1441 Rocket 3.3 19:38:16 10° SSW 19:42:04 79° WNW 19:45:51 10° NNE
Cosmos 1934 Rocket 4.1 19:36:42 10° S 19:43:01 70° E 19:49:23 10° NNE
USA 267 3.7 19:37:56 10° ENE 19:43:58 38° SE 19:49:59 10° SSW
Cosmos 614 Rocket 4.0 19:40:57 10° SSW 19:46:06 72° ESE 19:51:20 10° NE
GP-B 3.1 19:42:19 10° N 19:46:49 88° E 19:51:16 10° S
IGS 5A 4.3 19:43:11 10° S 19:47:13 50° W 19:51:17 10° NNW
Cosmos 1470 Rocket 4.0 19:43:57 10° SSE 19:48:11 46° E 19:52:23 10° NNE
Cosmos 1900 4.4 19:44:29 10° SW 19:49:27 67° SE 19:54:30 10° NE
CZ-2C R/B 4.5 19:47:39 10° NNE 19:52:17 59° WNW 19:56:48 10° SW
Cosmos 921 Rocket 3.3 19:49:09 10° NNW 19:53:23 63° WSW 19:57:32 10° SSE
Cosmos 1862 Rocket 4.1 19:50:46 10° NNW 19:55:12 60° W 19:59:35 10° S
Cosmos 1821 Rocket 4.3 19:50:10 10° SSW 19:56:19 73° WNW 20:02:37 10° NNE
Cosmos 841 Rocket 3.8 19:51:22 10° NNW 19:56:34 64° NE 20:01:47 10° SE
SL-16 R/B 2.3 19:50:55 10° NW 19:56:38 90° NNW 20:02:21 10° SE
Cosmos 540 Rocket 3.7 19:53:08 10° NNW 19:58:18 64° NE 20:03:27 10° SE
COSMOS 2406 3.2 19:52:53 10° SSW 19:58:39 79° SE 20:04:24 10° NE
Cosmos 468 Rocket 4.2 19:54:50 10° NW 20:00:11 78° WSW 20:05:29 10° SSE
Lacrosse 5 2.5 19:56:53 10° W 20:01:37 41° SSW 20:06:22 10° SE
ERS-1 Rocket 3.3 19:57:11 10° S 20:02:11 68° WSW 20:07:14 10° NNW
SAR-Lupe-2 4.0 20:00:08 10° NNE 20:03:36 43° E 20:07:02 10° S
Cosmos 1570 Rocket 4.2 20:02:12 10° NNW 20:07:33 75° NE 20:12:46 11° SE
Cosmos 2219 Rocket 3.2 20:02:22 10° NW 20:07:47 43° NNE 20:13:13 10° ESE
Sich 1 3.9 20:04:01 10° SSW 20:08:23 55° WNW 20:12:47 10° N
Cosmos 2208 Rocket 4.2 20:04:13 10° NNW 20:09:33 69° NE 20:14:40 11° SE
Cosmos 1814 Rocket 4.2 20:05:03 10° NNW 20:10:14 67° NE 20:15:20 11° SE
Cosmos 2237 4.4 20:07:07 10° NW 20:12:52 73° NE 20:18:35 10° SE
Cosmos 2082 Rocket 2.4 20:08:14 10° SSW 20:13:46 54° ESE 20:19:18 10° NE
Cosmos 1954 Rocket 4.2 20:10:18 10° S 20:15:28 53° ESE 20:20:39 10° NE
Cosmos 2322 Rocket 2.3 20:13:20 10° NW 20:19:03 81° SW 20:24:25 12° SSE
CZ-2C R/B 4.4 20:15:01 10° N 20:19:40 34° NW 20:24:17 10° WSW
SL-16 R/B 4.2 20:17:37 10° NW 20:22:35 29° N 20:27:32 10° ENE
Cosmos 1184 Rocket 2.9 20:22:26 10° SSW 20:25:44 81° WNW 20:29:04 10° NNE
Terra 2.2 20:21:25 10° S 20:26:09 64° WSW 20:30:55 10° NNW
Cosmos 1190 Rocket 4.0 20:21:10 10° SSW 20:26:29 85° ESE 20:31:51 10° NNE
Cosmos 2100 Rocket 4.4 20:20:53 10° SSE 20:26:38 46° E 20:32:30 10° NNE
Okean 1 3.9 20:23:15 10° NNW 20:27:13 55° W 20:31:11 10° S
Cosmos 1933 Rocket 3.6 20:24:58 10° S 20:29:23 73° E 20:33:51 10° NNE
Cosmos 407 Rocket 3.7 20:24:07 10° SW 20:29:27 82° WNW 20:34:46 10° NNE
Cosmos 1605 Rocket 4.0 20:23:31 10° S 20:29:39 89° ESE 20:35:48 10° NNE
Cosmos 1666 Rocket 4.4 20:25:46 10° SW 20:29:59 50° WNW 20:34:16 10° N
Cosmos 1238 Rocket 2.0 20:28:29 10° SSW 20:31:29 87° WNW 20:34:29 10° NNE
Meteor 1-20 Rocket 4.3 20:25:41 10° SSW 20:31:31 84° ESE 20:37:25 10° NNE
Cosmos 1437 Rocket 3.0 20:28:05 10° NNW 20:31:54 62° WSW 20:35:27 11° S
Cosmos 2360 Rocket 2.3 20:27:36 10° NW 20:33:20 84° NE 20:38:35 12° SE
COSMOS 2428 3.5 20:28:25 10° NW 20:34:00 50° NE 20:39:36 10° ESE
Cosmos 1242 Rocket 3.7 20:31:55 10° N 20:35:14 33° ENE 20:38:07 13° SE
Cosmos 1602 3.7 20:31:59 10° S 20:35:54 77° ESE 20:39:52 10° NNE
ATLAS 3B R/B 4.2 20:34:00 11° SE 20:36:56 15° ESE 20:40:28 10° ENE
Cosmos 1869 Rocket 4.1 20:35:52 13° SSE 20:39:35 45° E 20:43:51 10° NNE
ERBS 2.5 20:37:24 10° WSW 20:40:35 45° S 20:43:46 10° E
SPOT 5 3.8 20:36:38 10° SSW 20:40:40 37° W 20:44:47 10° NNW
Cosmos 1980 Rocket 3.9 20:36:40 10° NW 20:41:13 25° WSW 20:45:43 10° SSW
Cosmos 2173 Rocket 4.2 20:36:35 11° SSE 20:42:16 54° E 20:48:13 10° NNE
USA 238 DEB 4.1 20:36:27 10° SSW 20:42:41 42° SE 20:49:09 10° ENE
USA 238 4.1 20:36:35 10° SSW 20:42:47 42° SE 20:49:16 10° ENE
Cosmos 1703 Rocket 4.1 20:38:36 10° NNW 20:42:53 54° W 20:47:06 10° S
MTI 4.4 20:40:57 10° NNE 20:43:54 37° E 20:45:54 17° SSE
Geosat 4.2 20:40:38 14° SSE 20:45:00 62° WSW 20:50:01 10° NW
Iridium 4 Rocket 3.2 20:41:58 14° SSE 20:45:37 56° E 20:49:44 10° N
Cosmos 1763 Rocket 4.2 20:41:19 10° NW 20:46:24 46° WSW 20:51:08 12° S
SL-4 R/B 3.2 20:49:04 10° SSW 20:51:32 17° SSE 20:51:35 17° SSE
MOS 1-B Rocket 4.3 20:46:05 10° NNE 20:51:42 44° E 20:56:13 14° SSE
BREEZE-M DEB (TANK) 4.2 20:48:31 10° SW 20:52:04 30° SSE 21:01:30 10° ESE
Cosmos 1674 Rocket 4.2 20:48:34 10° N 20:52:45 44° ENE 20:56:08 15° SE
Cosmos 1500 3.4 20:50:18 16° S 20:53:08 50° E 20:56:47 10° NNE
Meteor 1-14 Rocket 4.4 20:47:24 10° S 20:53:16 78° ESE 20:59:15 10° NNE
Cosmos 405 Rocket 2.7 20:49:51 10° SSW 20:53:33 79° WNW 20:57:20 10° NNE
Cosmos 2333 Rocket 2.6 20:47:48 10° NW 20:53:35 65° NE 20:59:20 10° SE
ALOS 2 3.2 20:50:20 14° SE 20:53:56 47° ENE 20:58:11 10° N
Cosmos 1140 Rocket 3.8 20:49:54 10° SW 20:55:10 71° NW 21:00:27 10° NNE
Meteor 1-13 Rocket 4.2 20:50:41 10° NNW 20:56:18 89° WSW 21:00:56 15° SSE
Cosmos 2237 Rocket 3.4 20:52:27 10° NW 20:57:50 41° NNE 21:03:10 10° E
Cosmos 2016 Rocket 4.4 20:55:14 14° SSE 21:00:32 52° E 21:06:42 10° NNE
Cosmos 1536 3.9 20:58:57 16° SE 21:01:23 30° E 21:04:54 10° NNE
Cosmos 2061 Rocket 4.3 20:56:26 14° SSE 21:01:34 52° E 21:07:33 10° NNE
Cosmos 1271 Rocket 3.8 20:59:18 10° N 21:02:48 35° ENE 21:05:39 14° SE
Cosmos 1459 Rocket 4.1 20:58:06 12° S 21:03:59 71° E 21:10:21 10° NNE
Okean 1-7 4.1 21:00:24 10° NNW 21:04:29 40° W 21:08:30 10° SSW
Cosmos 1833 Rocket 3.1 20:58:56 10° SW 21:04:33 66° NW 21:10:12 10° NE
Cosmos 2344 4.2 20:56:35 10° WNW 21:04:46 81° NNE 21:15:48 10° ESE
Cosmos 1666 3.5 21:02:40 18° SSE 21:04:55 35° E 21:08:23 10° NNE
Cosmos 2221 Rocket 3.6 21:01:04 10° NNW 21:05:33 86° WSW 21:09:01 17° S
Cosmos 1066 Rocket 4.4 21:01:27 10° NNW 21:07:17 74° ENE 21:11:52 16° SSE
Meteor 1-23 Rocket 4.4 21:02:51 10° NNW 21:08:44 73° ENE 21:13:27 16° SSE
Cosmos 1356 4.5 21:07:57 19° SE 21:09:44 30° E 21:12:47 10° NNE
Okean 3 3.7 21:06:24 10° NNW 21:10:40 68° W 21:13:59 16° S
Cosmos 1867 3.6 21:05:28 10° SW 21:10:51 64° SE 21:16:16 10° ENE
CENTAUR R/B 3.1 21:05:22 10° SSW 21:11:11 41° SE 21:17:59 10° ENE
Thor Agena Rocket 4.1 21:07:58 10° NNE 21:12:48 43° E 21:16:25 17° SSE
Cosmos 44 Rocket 3.4 21:08:38 10° WNW 21:13:34 83° NNE 21:18:37 10° ESE
Meteor 2-4 Rocket 4.3 21:08:22 10° NNW 21:13:56 52° W 21:18:53 12° S
Cosmos 1733 Rocket 3.8 21:13:55 18° SSE 21:16:43 38° E 21:20:51 10° NNE
Cosmos 1802 Rocket 4.1 21:13:52 13° S 21:19:34 74° E 21:25:55 10° NNE
Cosmos 1850 Rocket 4.0 21:14:28 10° SSW 21:19:44 68° ESE 21:24:59 10° NE
Cosmos 44 4.2 21:15:34 10° WNW 21:19:54 35° SW 21:23:09 17° S
ATLAS 5 CENTAUR R/B 3.1 21:18:59 10° W 21:21:17 24° SSW 21:23:25 17° S
SL-27 R/B 2.6 21:19:37 20° S 21:21:35 47° ESE 21:24:48 10° NE
Cosmos 676 Rocket 4.5 21:18:47 10° SW 21:24:06 67° NW 21:29:28 10° NNE
USA 267 3.2 21:21:18 10° E 21:27:48 62° SSE 21:34:18 10° WSW
Spot 4 4.1 21:27:26 17° S 21:31:03 61° WSW 21:35:53 10° NNW
Cosmos 2233 Rocket 4.4 21:29:56 17° SSE 21:34:39 51° E 21:40:45 10° NNE
Cosmos 1378 3.2 21:31:47 10° NNW 21:35:33 73° ENE 21:37:53 22° SSE
NOSS 3-2 (A) 3.5 21:31:01 10° SW 21:36:58 66° SE 21:43:56 10° ENE
Cosmos 1607 4.5 21:32:28 10° WNW 21:38:50 66° NNE 21:45:18 10° E
Cosmos 1842 4.2 21:35:51 10° N 21:39:37 40° ENE 21:42:24 16° SE
SL-16 R/B 3.6 21:35:30 10° NW 21:40:12 27° WSW 21:44:17 12° SSW
NOSS 3-2 (C) 3.7 21:37:07 10° SSW 21:42:56 54° SE 21:49:42 10° ENE
Cosmos 2322 3.8 21:37:45 10° NW 21:43:25 68° WSW 21:47:37 18° SSE
Lacrosse 5 3.6 21:40:23 10° W 21:43:35 17° SW 21:45:32 14° SSW
OPS 6432 4.0 21:40:53 10° WSW 21:44:15 78° SSE 21:47:12 10° ENE
Cosmos 1378 Rocket 3.6 21:44:19 10° NNW 21:48:49 85° WSW 21:51:46 21° S
Tsikada Rocket 4.2 21:43:37 10° NNW 21:49:59 67° W 21:54:55 17° S
Cosmos 2219 Rocket 2.2 21:46:31 10° NW 21:52:13 77° SW 21:56:38 17° SSE
Cosmos 1741 Rocket 4.1 21:48:55 10° SW 21:54:12 82° NW 21:59:33 10° NNE
Cosmos 2333 4.5 21:52:05 10° NW 21:57:46 58° WSW 22:01:49 19° SSE
Cosmos 2082 Rocket 3.0 21:52:24 10° WSW 21:57:59 54° NW 22:03:34 10° NE
COSMOS 2487 3.4 21:58:46 23° SSE 22:00:02 31° ESE 22:03:07 10° NE
Cosmos 2084 Rocket 4.0 21:59:01 21° S 22:01:20 37° SE 22:05:21 10° ENE
Cosmos 1975 Rocket 3.5 21:57:37 10° N 22:02:05 57° ENE 22:05:17 18° SE
Cosmos 2322 Rocket 3.7 21:57:59 10° NW 22:02:25 24° WSW 22:06:13 12° SSW
EO 1 Del DPAF 3.1 21:58:46 10° NNE 22:02:33 84° ESE 22:04:57 22° SSW
Terra 4.2 22:02:16 10° WSW 22:04:53 14° W 22:07:29 10° NW
SL-16 R/B 3.3 22:02:30 10° NW 22:08:00 45° NNE 22:13:28 10° ESE
SL-16 R/B 3.9 22:03:45 10° ESE 22:09:20 35° NE 22:14:55 10° NNW
Cosmos 1242 Rocket 3.6 22:06:49 10° NNW 22:10:08 35° W 22:12:07 20° SSW
Meteor 1-11 Rocket 3.9 22:09:09 15° SSW 22:13:56 77° WNW 22:19:47 10° NNE
YAOGAN 11 4.2 22:10:49 20° SSE 22:14:00 84° ENE 22:18:37 10° NNW
Helios 1A 3.0 22:13:11 22° SSE 22:15:52 83° WSW 22:20:07 10° NNW
ERBS 2.7 22:13:26 10° W 22:16:33 39° SSW 22:18:11 22° SE
Cosmos 2360 Rocket 3.3 22:12:00 10° NW 22:16:53 30° WSW 22:20:19 17° SSW
COSMOS 2428 2.9 22:12:52 10° NW 22:18:32 61° WSW 22:22:37 19° SSE
Cosmos 1544 3.7 22:20:20 23° SSE 22:22:11 44° E 22:25:43 10° NNE
Okean 2 3.3 22:18:26 10° NNW 22:22:34 83° WSW 22:25:03 23° S
ATLAS 3B R/B 2.9 22:21:13 17° SSW 22:26:06 47° SE 22:32:27 10° ENE
Nimbus 7 Rocket 4.4 22:21:45 10° NNE 22:27:40 85° ESE 22:32:15 18° SSW
ALOS 2 3.6 22:27:44 18° SSW 22:30:26 35° W 22:34:31 10° NNW
Cosmos 1980 3.7 22:27:09 10° NW 22:32:52 88° SW 22:38:05 13° SE
Cosmos 1725 Rocket 4.4 22:27:19 13° SSW 22:32:55 62° WNW 22:39:14 10° N
USA 238 DEB 3.7 22:26:23 10° WSW 22:33:11 90° S 22:40:21 10° ENE
USA 238 3.7 22:26:30 10° WSW 22:33:17 90° S 22:40:28 10° ENE
DNEPR-1 R/B 4.3 22:27:13 10° WNW 22:33:54 84° SSW 22:39:14 10° SE
Cosmos 1536 3.6 22:34:39 15° SW 22:37:42 45° WNW 22:41:34 10° N
Cosmos 2333 Rocket 2.8 22:32:19 10° NW 22:37:44 43° WSW 22:41:19 20° S
Cosmos 2297 Rocket 4.2 22:34:51 10° SE 22:37:54 15° E 22:40:56 10° ENE
Cosmos 1271 Rocket 3.6 22:35:21 10° NNW 22:38:49 36° W 22:40:47 21° SSW
Cosmos 1538 Rocket 4.1 22:33:43 10° NNW 22:38:55 74° NE 22:43:52 11° SE
Cosmos 1666 3.9 22:37:32 13° SW 22:40:32 35° WNW 22:44:02 10° N
Cosmos 1743 2.7 22:38:17 23° SSW 22:40:36 83° WNW 22:44:33 10° NNE
NOSS 0 Rocket 4.0 22:36:03 10° NW 22:42:14 65° SW 22:47:14 16° SSE
Cosmos 2237 Rocket 2.2 22:36:43 10° NW 22:42:26 83° SW 22:47:32 13° SSE
Cosmos 773 Rocket 3.9 22:39:14 10° NW 22:44:26 80° WSW 22:48:25 17° SSE
Cosmos 1025 Rocket 3.4 22:40:51 10° N 22:45:07 59° ENE 22:48:18 17° SSE
Lacrosse 4 Rocket 2.0 22:45:23 23° S 22:47:33 42° SE 22:51:30 10° NE
Thor Agena Rocket 4.3 22:47:23 10° NNE 22:52:15 48° WNW 22:57:00 11° SW
Cosmos 1733 Rocket 4.0 22:50:59 14° SW 22:54:32 41° WNW 22:58:47 10° N
Cosmos 1867 4.1 22:49:09 10° W 22:54:35 63° NNW 23:00:03 10° ENE
Cosmos 44 Rocket 4.1 22:50:21 10° WNW 22:54:51 36° SW 22:57:30 21° S
Meteor 2-11 Rocket 4.5 22:51:23 18° SSW 22:56:02 80° WNW 23:02:12 10° NNE
In-Cosmos 22 4.4 22:51:02 10° NNW 22:56:44 73° ENE 23:01:27 15° SSE
SL-27 R/B 4.2 22:53:56 10° WSW 22:56:51 28° NW 22:59:48 10° NNE
CENTAUR R/B 2.8 22:54:45 10° WSW 23:01:20 88° SSE 23:09:12 10° ENE
Cosmos 968 Rocket 3.5 22:59:01 20° SSW 23:02:33 71° ESE 23:07:41 10° NE
Cosmos 2026 Rocket 4.3 22:56:49 10° N 23:02:50 61° ENE 23:08:43 11° SSE
Resurs 1-4 Rocket 3.9 22:59:38 10° NE 23:03:41 22° E 23:07:43 10° SE
Spot 1 4.5 23:00:24 13° SE 23:04:01 56° ENE 23:08:02 10° NNW
Cosmos 1536 Rocket 3.7 23:00:20 10° NNW 23:04:42 70° ENE 23:07:59 17° SSE
Cosmos 1975 2.8 23:02:22 23° SSW 23:04:48 89° ESE 23:08:53 10° NNE
Cosmos 1354 Rocket 4.3 23:07:09 20° S 23:10:43 56° ESE 23:15:57 10° NE
USA 267 3.2 23:04:48 10° ESE 23:11:20 68° S 23:17:52 10° W
Cosmos 1782 Rocket 3.5 23:10:37 22° SSW 23:13:25 86° W 23:17:49 10° NNE
Cosmos 1707 2.8 23:09:55 10° NNW 23:13:50 71° W 23:16:13 23° S
Cosmos 1842 4.3 23:12:00 10° NNW 23:15:35 33° W 23:17:41 19° SW
Helios 1B rocket 2.8 23:15:09 10° NNE 23:19:12 56° ESE 23:21:48 21° S
Cosmos 2344 4.3 23:10:47 10° WNW 23:19:24 61° SW 23:31:11 10° SSE
CZ-4 R/B 4.0 23:14:28 10° NNE 23:19:27 72° ESE 23:23:00 20° S
Cosmos 1464 Rocket 4.0 23:15:36 19° SSW 23:20:21 87° W 23:26:36 10° NNE
Cosmos 1680 Rocket 3.9 23:16:06 10° NNW 23:21:21 64° NE 23:26:33 10° SE
Cosmos 1908 Rocket 4.1 23:18:33 17° SW 23:21:43 50° WNW 23:25:59 10° N
CZ-4C R/B 4.0 23:19:58 11° SE 23:23:14 46° ENE 23:26:45 10° N
USA 102 3.6 23:23:49 35° SSE 23:25:11 72° WSW 23:31:40 10° NW
Cosmos 1674 3.0 23:21:59 10° N 23:25:41 60° ENE 23:28:43 15° SSE
Cosmos 1607 4.0 23:19:56 10° WNW 23:26:19 69° SW 23:32:45 10° SE
Cosmos 2227 Rocket 3.7 23:22:42 12° SSE 23:26:44 25° ESE 23:31:18 10° NE
NOSS 3-2 (A) 3.9 23:21:36 10° W 23:27:57 74° NNW 23:35:23 10° ENE
Nadezhda 4 Rocket 4.3 23:27:09 10° NNW 23:33:21 57° W 23:38:04 17° SSW
NOSS 3-2 (C) 3.8 23:27:26 10° WSW 23:33:43 79° NNW 23:41:07 10° ENE
Cosmos 1833 4.4 23:28:44 11° SW 23:34:08 73° NW 23:39:51 10° NE
COSMOS 2487 3.4 23:32:14 13° WSW 23:35:00 41° NW 23:38:19 10° NNE
Cosmos 2219 Rocket 3.6 23:31:08 10° NW 23:35:25 22° WSW 23:38:19 15° SW
Meteor 1-29 3.4 23:35:38 10° NNE 23:39:04 55° ESE 23:41:13 21° S
Cosmos 1975 Rocket 4.4 23:35:52 10° NNW 23:39:43 28° W 23:42:25 16° SW
Cosmos 2084 Rocket 3.5 23:36:17 10° WSW 23:40:36 85° NNW 23:45:01 10° ENE
Cosmos 2082 Rocket 4.2 23:38:13 10° WNW 23:43:13 30° NNW 23:48:11 10° NE
Cosmos 1437 3.3 23:40:27 10° NNW 23:43:16 37° W 23:44:31 24° SSW
MOZ.5/SAFIR/RUBIN 5/SL-8 3.8 23:39:37 15° SSE 23:43:34 78° WSW 23:48:21 10° NNW
Cosmos 158 Rocket 4.1 23:39:42 10° NNW 23:45:04 85° NE 23:50:30 10° SSE
Landsat 4 4.0 23:42:49 10° NNE 23:46:35 60° WNW 23:49:12 19° SW
ADEOS II 4.1 23:43:26 10° NE 23:47:26 21° E 23:51:25 10° SE
Cosmos 1092 Rocket 4.1 23:41:25 10° NNW 23:47:38 67° W 23:52:45 15° S
Okean 2 Rocket 3.1 23:45:22 19° SSW 23:48:34 89° E 23:53:07 10° NNE
Cosmos 2034 Rocket 4.1 23:43:53 17° SSW 23:48:52 79° WNW 23:55:16 10° NNE
CZ-2D R/B 3.1 23:44:45 10° NNE 23:49:56 41° E 23:54:54 11° SSE
Cosmos 1503 Rocket 4.1 23:45:55 16° SW 23:50:15 83° WNW 23:55:40 10° NNE
Cosmos 923 Rocket 4.0 23:46:50 10° NW 23:52:13 76° WSW 23:57:31 10° SSE
ERBS 4.2 23:49:58 10° WSW 23:51:02 15° WSW 23:51:02 15° WSW
SL-16 R/B 2.2 23:46:48 10° NW 23:52:30 70° SW 23:58:10 10° SSE
SL-16 R/B 2.6 23:46:15 10° SSE 23:52:33 81° WSW 23:58:52 10° NNW
Cosmos 1300 Rocket 3.5 23:52:28 19° SSW 23:55:33 85° WNW 23:59:54 10° NNE
